Regional Weather Roundup
Issued by NWS

Home | Current Version | Previous Version | Text Only | Print | Product List | Glossary Off
Versions: 1 2 3 4 5 6 7 8 9 10 11 12 13 14 15 16 17 18 19 20 21 22 23 24 25 26 27 28 29 30 31 32 33 34 35 36 37 38 39 40 41 42 43 44 45 46 47 48 49 50

000
ASUS45 KBOU 081207
RWRCO

WEATHER ROUNDUP FOR COLORADO
NATIONAL WEATHER SERVICE DENVER/BOULDER CO
500 AM MST MON FEB 08 2016

NOTE: "FAIR" INDICATES FEW OR NO CLOUDS BELOW 12000 FEET WITH NO
SIGNIFICANT WEATHER AND/OR OBSTRUCTIONS TO VISIBILITY.

COZ001>005-013-030-031-081300-
...NORTHWEST COLORADO...

CITY           SKY/WX    TMP DP  RH WIND       PRES   REMARKS
CRAIG          CLOUDY    -6 -11  79 CALM      30.57R
HAYDEN         CLOUDY     9   1  72 SE6       30.54R WCI  -1
MEEKER         CLOUDY     7   1  76 CALM      30.55R
MOUNT WERNER   NOT AVBL
STEAMBOAT SPGS CLOUDY    14  12  90 CALM      30.54R
WALDEN         CLOUDY    25  14  63 SW5       30.46R WCI  19
$$

COZ006>008-011-081300-
...WEST CENTRAL VALLEYS...

CITY           SKY/WX    TMP DP  RH WIND       PRES   REMARKS
GRAND JUNCTION CLOUDY    15  12  88 SE7       30.56R WCI   5
MONTROSE       CLOUDY    18  10  71 SE6       30.58S WCI  10
EAGLE          CLOUDY     9   7  92 CALM      30.60S
RIFLE          CLOUDY    13   8  81 CALM      30.59R
DELTA          CLOUDY    18  15  87 CALM      30.58S
NUCLA          CLOUDY    18  14  86 E6        30.56S WCI   9
$$

COZ017>023-064>068-081300-
...SOUTHWEST COLORADO...

CITY           SKY/WX    TMP DP  RH WIND       PRES   REMARKS
DURANGO        CLOUDY     7   4  87 NE5       30.44R WCI  -2
CORTEZ         CLOUDY    15  11  83 E10       30.45S WCI   2
PAGOSA SPRINGS CLOUDY   N/A N/A N/A CALM      30.44S
TELLURIDE      NOT AVBL
WOLF CREEK PAS CLOUDY    23   7  50 E3        30.50S
$$

COZ009-010-012-014-032>034-037-058>063-081300-
...CENTRAL COLORADO...

CITY           SKY/WX    TMP DP  RH WIND       PRES   REMARKS
ASPEN          CLOUDY    11   5  77 SW9       30.54R WCI  -2
BUENA VISTA    CLOUDY    31  13  46 NW18G26   30.39R WCI  19
COPPER MTN     CLOUDY    19  10  68 W13G20    30.48R WCI   7
BERTHOUD PASS  CLOUDY    12   1  62 NW43G51   30.37R HAZE    WCI -12
COTTONWOOD PAS CLOUDY    32  10  40 W6        30.39R WCI  26
GUNNISON       CLOUDY    -9 N/A N/A CALM      30.56F
KREMMLING      CLOUDY    23  12  63 NW3       30.51S
LEADVILLE      CLOUDY    11   6  81 NE12      30.46F WCI  -3
MONARCH PASS   CLOUDY    10   7  85 MISG      30.55R
SALIDA         NOT AVBL
SUNLIGHT       CLOUDY    19  14  79 N3          N/A
WILKERSON PASS CLOUDY    23  14  68 MISG      30.31S
$$

COZ069>075-081300-
...SAN LUIS VALLEY/SANGRE DE CRISTO MOUNTAINS...

CITY           SKY/WX    TMP DP  RH WIND       PRES   REMARKS
ALAMOSA        CLOUDY     9   4  80 SW6       30.42R WCI  -1
LA VETA PASS   CLOUDY    21   7  53 MISG      30.35R
SAGUACHE       CLOUDY    27  12  54 N13       30.45R WCI  16
$$

COZ035-036-038>040-081300-
...NORTHERN COLORADO FRONT RANGE...

CITY           SKY/WX    TMP DP  RH WIND       PRES   REMARKS
DENVER INTL AP CLOUDY    18  10  71 SE13      30.31F WCI   5
DMNS CITY PARK   N/A     21  16  79 S6        30.32S WCI  14
AURORA         PTCLDY    19  12  74 S12       30.31F WCI   7
FRONT RANGE AP NOT AVBL
ERIE MUNI ARPT CLOUDY    21  16  79 CALM      30.32F
BOULDER MUN AP CLOUDY    19  18  93 NW3       30.32R
CENTENNIAL     CLOUDY    22  14  71 SE6       30.30F WCI  14
BROOMFIELD     CLOUDY    23  19  86 S5        30.30F WCI  17
FORT COLLINS   CLOUDY    19  14  79 N3        30.35S
LONGMONT       CLOUDY    18  14  83 NW3       30.36R
$$

COZ041-046-047-076>085-087-088-081300-
...PIKES PEAK/PALMER DIVIDE AND SOUTHERN FOOTHILLS...

CITY           SKY/WX    TMP DP  RH WIND       PRES   REMARKS
COLO. SPRINGS  CLOUDY    22  19  89 SW7       30.35F WCI  13
A. F. ACADEMY  CLOUDY    20  18  94 E2        30.32F
SCHRIEVER AFB  NOT AVBL
ELLICOTT       NOT AVBL
FALCON         CLOUDY    19  19  98 W10       30.32F FOG     WCI   7
FORT CARSON    CLOUDY    24  19  83 SW8       30.34F WCI  15
LIMON          CLOUDY    21  11  65 W10       30.34S WCI  10
MONUMENT HILL  CLOUDY    16  14  93 SW9       30.31F WCI   4
TRINIDAD       CLOUDY    18  14  84 W6        30.38S WCI  10
$$

COZ042>045-048>051-090-091-081300-
...NORTHEAST COLORADO...

CITY           SKY/WX    TMP DP  RH WIND       PRES   REMARKS
GREELEY ARPT   CLOUDY    16  12  86 CALM      30.37S
AKRON          CLOUDY    20  13  74 NW20      30.31S WCI   4
BURLINGTON     CLOUDY    20  10  65 NW14      30.32S WCI   7
WRAY           CLEAR     27  10  50 NW16G22   30.32F WCI  14
STERLING       CLOUDY    28  16  59 W6        30.36R WCI  22
HOLYOKE        CLEAR     30  12  47 NW21G30   30.32S WCI  17
FORT MORGAN    CLOUDY    14  12  91 NW7       30.36S WCI   4
$$

COZ086-089-092>099-081300-
...SOUTHEAST COLORADO...

CITY           SKY/WX    TMP DP  RH WIND       PRES   REMARKS
PUEBLO         CLOUDY    25  20  81 SW6       30.39F WCI  18
LA JUNTA       CLOUDY    26  21  81 W13       30.39F WCI  15
LAMAR          CLEAR     24  15  68 W10       30.38F WCI  14
SPRINGFIELD      N/A     22  15  75 W8        30.38F WCI  12
$$



USA.gov is the U.S. government's official web portal to all federal, state and local government web resources and services.